EW7144 Weather Reports


Display with metric or nautical units.
time (UTC)temp
F
wind
direction
speed
MPH
gust
MPH
rain 1hr
in
rain 24hr
in
rain mn
in
humidity
%
barometer
mb
20260831001404 57 211 13.0 30.0 0.00 0.02 0.00 76 1001.0
20260831000905 57 270 14.0 31.0 0.00 0.02 0.00 77 1001.1
20260831000406 57 209 16.0 25.0 0.00 0.02 0.00 76 1000.9
20260830235905 57 274 14.0 30.0 0.00 0.02 0.00 76 1000.9
20260830235404 57 247 13.0 28.0 0.00 0.02 0.00 75 1000.7
20260830234904 57 293 18.0 35.0 0.00 0.02 0.00 73 1000.9
20260830234404 57 214 12.0 35.0 0.00 0.02 0.00 74 1000.8
20260830233904 57 304 15.0 29.0 0.00 0.02 0.00 73 1000.9
20260830233405 57 216 13.0 33.0 0.00 0.02 0.00 73 1000.8
20260830232904 57 232 12.0 26.0 0.00 0.02 0.00 73 1000.9
20260830232404 57 256 17.0 39.0 0.00 0.02 0.00 73 1000.9
20260830231904 56 209 14.0 29.0 0.00 0.02 0.00 75 1000.9
20260830231404 56 218 13.0 37.0 0.00 0.02 0.00 76 1000.9
20260830230408 56 265 16.0 33.0 0.00 0.02 0.00 74 1000.8
20260830225905 57 225 15.0 32.0 0.00 0.02 0.00 73 1000.9
20260830225405 57 235 13.0 26.0 0.00 0.02 0.00 73 1000.9
20260830224904 57 244 12.0 25.0 0.00 0.02 0.00 72 1001.0
20260830224404 56 206 16.0 30.0 0.00 0.02 0.00 72 1000.9
20260830223905 56 226 16.0 35.0 0.00 0.02 0.00 72 1001.0
20260830223405 56 207 12.0 36.0 0.00 0.02 0.00 73 1001.1
20260830222904 56 198 18.0 37.0 0.00 0.02 0.00 73 1001.1
20260830222405 56 202 17.0 31.0 0.00 0.02 0.00 75 1000.9
20260830221904 56 231 16.0 28.0 0.00 0.02 0.00 75 1000.8
20260830221405 56 242 17.0 26.0 0.00 0.02 0.00 75 1001.0
20260830220904 56 226 17.0 36.0 0.00 0.02 0.00 75 1000.7
20260830220405 56 248 16.0 38.0 0.00 0.02 0.00 76 1000.6
20260830215904 56 218 16.0 36.0 0.00 0.02 0.00 75 1000.5
20260830215404 55 232 14.0 26.0 0.00 0.02 0.00 75 1000.4
20260830214905 56 203 14.0 26.0 0.00 0.02 0.00 75 1001.0
20260830214404 56 246 12.0 32.0 0.00 0.02 0.00 75 1000.9
20260830213905 56 214 12.0 36.0 0.00 0.02 0.00 74 1001.1
20260830213405 56 299 16.0 37.0 0.00 0.02 0.00 73 1001.0
20260830212904 55 202 14.0 31.0 0.00 0.02 0.00 74 1000.9
20260830212404 55 199 13.0 28.0 0.00 0.02 0.00 75 1001.4
20260830211404 54 213 12.0 25.0 0.00 0.02 0.00 78 1001.3
20260830210904 54 243 9.0 28.0 0.00 0.02 0.00 79 1001.4
20260830210404 54 212 14.0 32.0 0.00 0.02 0.00 79 1001.5
20260830205905 55 210 15.0 33.0 0.00 0.02 0.00 77 1001.5
20260830205404 55 207 12.0 36.0 0.00 0.02 0.00 76 1001.2
20260830204904 55 224 16.0 35.0 0.00 0.02 0.00 76 1001.6
20260830204404 55 211 13.0 37.0 0.00 0.02 0.00 75 1001.5
20260830203904 55 215 9.0 30.0 0.00 0.02 0.00 75 1001.6
20260830203405 55 258 13.0 30.0 0.00 0.02 0.00 75 1001.7
20260830202904 54 199 10.0 30.0 0.00 0.02 0.00 75 1001.6
20260830202405 54 176 12.0 30.0 0.00 0.02 0.00 76 1001.6
20260830201905 54 188 13.0 33.0 0.00 0.02 0.00 77 1001.5
20260830201406 54 210 17.0 36.0 0.00 0.02 0.00 77 1001.5
20260830200905 54 209 14.0 32.0 0.00 0.02 0.00 78 1001.3
20260830200404 54 206 13.0 31.0 0.00 0.02 0.00 78 1001.0
20260830195904 54 250 16.0 30.0 0.00 0.02 0.00 78 1000.9
20260830195404 54 184 14.0 35.0 0.00 0.02 0.00 77 1001.0
20260830194904 54 218 13.0 35.0 0.00 0.02 0.00 78 1001.1
20260830194408 54 227 16.0 38.0 0.00 0.02 0.00 78 1001.0
20260830193905 54 250 13.0 29.0 0.00 0.02 0.00 78 1001.0
20260830192904 53 211 10.0 29.0 0.00 0.02 0.00 78 1001.0
20260830192405 53 215 10.0 24.0 0.00 0.02 0.00 78 1001.0
20260830191905 53 305 11.0 26.0 0.00 0.02 0.00 78 1001.0
20260830190904 53 210 16.0 38.0 0.00 0.02 0.00 79 1000.8
20260830190404 53 212 14.0 30.0 0.00 0.02 0.00 80 1000.9
20260830185404 53 271 12.0 29.0 0.00 0.02 0.00 81 1000.9
20260830184404 53 231 14.0 24.0 0.00 0.02 0.00 81 1000.7
20260830183404 53 235 14.0 39.0 0.00 0.02 0.00 81 1000.8
20260830182904 53 221 14.0 31.0 0.00 0.02 0.00 81 1000.6
20260830182404 52 215 15.0 28.0 0.00 0.02 0.00 81 1000.7
20260830181904 52 207 12.0 25.0 0.00 0.02 0.00 81 1000.4
20260830181405 52 196 14.0 32.0 0.00 0.02 0.00 80 1000.6
20260830180904 52 221 12.0 29.0 0.00 0.02 0.00 80 1000.5
20260830180404 52 209 14.0 33.0 0.00 0.02 0.00 79 1000.5
20260830175904 53 222 11.0 26.0 0.00 0.02 0.00 81 1000.5
20260830175404 53 264 12.0 33.0 0.00 0.02 0.00 81 1000.5
20260830174904 54 214 15.0 35.0 0.00 0.02 0.00 81 1000.0
20260830174404 54 352 14.0 28.0 0.00 0.02 0.00 82 1000.0
20260830173904 54 218 13.0 38.0 0.00 0.02 0.00 83 1000.0
20260830173404 54 242 10.0 25.0 0.00 0.02 0.00 83 999.7
20260830172904 53 253 16.0 28.0 0.00 0.02 0.00 83 999.8
20260830172404 53 332 13.0 24.0 0.00 0.02 0.00 84 999.9
20260830171904 53 253 12.0 33.0 0.00 0.02 0.00 83 1000.3
20260830170904 52 305 16.0 35.0 0.00 0.02 0.00 82 1000.4
20260830170404 53 209 12.0 23.0 0.00 0.02 0.00 82 1000.4
20260830165904 54 263 16.0 25.0 0.00 0.02 0.00 80 1000.5
20260830165404 54 217 12.0 30.0 0.00 0.02 0.00 79 1000.4
20260830164404 54 273 14.0 33.0 0.00 0.02 0.00 79 1000.2
20260830163904 54 236 12.0 26.0 0.00 0.02 0.00 81 1000.5
20260830162904 53 234 10.0 24.0 0.00 0.03 0.00 80 1000.8
20260830162404 54 229 11.0 23.0 0.00 0.03 0.00 79 1000.8
20260830161408 54 217 13.0 26.0 0.00 0.03 0.00 78 1000.8
20260830160905 54 222 9.0 37.0 0.00 0.03 0.00 77 1001.1
20260830160404 54 217 17.0 35.0 0.00 0.03 0.00 77 1000.7
20260830155904 53 200 10.0 31.0 0.00 0.03 0.00 78 1000.9
20260830155404 53 269 10.0 23.0 0.00 0.03 0.00 78 1000.9
20260830154904 53 319 12.0 31.0 0.00 0.03 0.00 78 1000.9
20260830154404 53 204 16.0 26.0 0.00 0.03 0.00 78 1001.1
20260830153904 53 257 13.0 30.0 0.00 0.03 0.00 78 1001.0
20260830152904 53 232 12.0 25.0 0.00 0.03 0.00 78 1001.3
20260830152405 53 208 16.0 33.0 0.00 0.03 0.00 78 1001.3
20260830151904 53 205 7.0 22.0 0.00 0.03 0.00 77 1001.4
20260830151404 53 206 9.0 35.0 0.00 0.03 0.00 77 1001.3
20260830150904 52 280 11.0 24.0 0.00 0.03 0.00 76 1001.7
20260830150403 52 199 12.0 26.0 0.00 0.03 0.00 75 1001.6
20260830145904 52 213 9.0 16.0 0.00 0.03 0.00 75 1001.7
20260830145404 52 206 12.0 29.0 0.00 0.03 0.00 76 1001.6
20260830144904 52 227 9.0 20.0 0.00 0.03 0.00 76 1001.8
20260830144404 52 224 7.0 24.0 0.00 0.03 0.00 75 1001.9
20260830142904 53 295 9.0 18.0 0.00 0.03 0.00 75 1002.1
20260830142404 53 225 8.0 28.0 0.00 0.03 0.00 74 1002.3
20260830141904 52 208 9.0 25.0 0.00 0.03 0.00 75 1002.4
20260830141404 52 303 9.0 23.0 0.00 0.03 0.00 74 1002.5
20260830140904 52 199 9.0 20.0 0.00 0.03 0.00 74 1002.5
20260830140404 52 262 10.0 26.0 0.00 0.03 0.00 74 1002.3
20260830135904 52 212 10.0 30.0 0.00 0.03 0.00 75 1002.5
20260830135405 52 213 10.0 24.0 0.00 0.03 0.00 75 1002.4
20260830134904 52 230 8.0 23.0 0.00 0.03 0.00 75 1002.4
20260830133905 52 184 9.0 20.0 0.00 0.03 0.00 75 1002.5
20260830133403 52 223 3.0 20.0 0.00 0.03 0.00 75 1002.5
20260830132403 53 208 9.0 24.0 0.00 0.03 0.00 74 1002.5
20260830130904 52 204 10.0 25.0 0.00 0.03 0.00 75 1002.4
20260830130404 52 191 10.0 21.0 0.00 0.03 0.00 75 1002.3
20260830125907 53 214 8.0 22.0 0.02 0.03 0.00 75 1002.3
20260830125406 53 195 11.0 25.0 0.02 0.03 0.00 75 1002.2
20260830124907 53 203 10.0 22.0 0.02 0.03 0.00 76 1002.1
20260830123906 52 281 14.0 26.0 0.02 0.03 0.00 76 1002.1
20260830123406 52 287 5.0 17.0 0.02 0.03 0.00 77 1002.3
20260830122906 52 208 11.0 24.0 0.02 0.03 0.00 77 1002.2
20260830121906 52 196 11.0 26.0 0.02 0.03 0.00 77 1002.1
20260830121406 52 315 7.0 22.0 0.02 0.03 0.00 76 1002.2
20260830120906 52 207 9.0 24.0 0.02 0.03 0.00 76 1002.2
20260830115906 52 206 9.0 18.0 0.00 0.02 0.02 75 1002.1
20260830115407 52 218 10.0 26.0 0.00 0.02 0.02 74 1002.2
20260830114906 52 227 9.0 24.0 0.00 0.02 0.02 75 1002.3
20260830114407 52 199 9.0 20.0 0.00 0.02 0.02 74 1002.3
20260830113907 52 283 9.0 25.0 0.00 0.02 0.02 74 1002.4
20260830112906 52 237 9.0 20.0 0.00 0.02 0.02 74 1002.5
20260830112407 52 209 9.0 20.0 0.00 0.02 0.02 75 1002.5
20260830111907 52 205 12.0 23.0 0.00 0.02 0.02 74 1002.4
20260830111406 52 203 10.0 30.0 0.00 0.02 0.02 74 1002.3
20260830110907 53 219 9.0 24.0 0.00 0.02 0.02 74 1002.4
20260830105906 53 220 11.0 30.0 0.00 0.02 0.02 75 1002.3
20260830105406 52 226 10.0 23.0 0.00 0.02 0.02 75 1002.1
20260830104907 53 325 8.0 15.0 0.00 0.02 0.02 75 1002.2
20260830104407 53 228 7.0 24.0 0.00 0.02 0.02 75 1002.2
20260830103906 53 238 10.0 24.0 0.00 0.02 0.02 74 1002.1
20260830101406 53 222 9.0 24.0 0.00 0.02 0.02 74 1001.6
20260830100907 53 357 9.0 25.0 0.00 0.02 0.02 74 1001.6
20260830095906 53 266 9.0 23.0 0.00 0.02 0.02 75 1001.3
20260830095406 53 295 10.0 24.0 0.00 0.02 0.02 74 1001.3
20260830094907 53 203 10.0 29.0 0.00 0.02 0.02 74 1001.3
20260830094407 53 212 12.0 24.0 0.00 0.02 0.02 74 1001.5
20260830093907 53 208 12.0 29.0 0.00 0.02 0.02 74 1001.3
20260830093407 53 313 7.0 24.0 0.00 0.02 0.02 74 1001.3
20260830092906 53 226 10.0 26.0 0.00 0.02 0.02 73 1001.2
20260830091906 53 213 14.0 35.0 0.00 0.02 0.02 72 1001.1
20260830090906 54 214 14.0 29.0 0.00 0.02 0.02 70 1000.7
20260830090406 54 220 12.0 29.0 0.00 0.02 0.02 70 1000.7
20260830085906 54 209 15.0 35.0 0.00 0.02 0.02 70 1000.2
20260830085406 54 312 15.0 38.0 0.00 0.02 0.02 70 1000.2
20260830084907 54 250 14.0 30.0 0.00 0.02 0.02 71 1000.0
20260830084407 54 204 14.0 35.0 0.00 0.02 0.02 71 1000.0
20260830083407 54 266 13.0 28.0 0.00 0.02 0.02 71 999.9
20260830082906 54 202 14.0 30.0 0.00 0.02 0.02 71 1000.3
20260830082407 54 205 12.0 28.0 0.00 0.02 0.02 72 1000.2
20260830081907 54 231 13.0 25.0 0.00 0.02 0.02 72 999.8
20260830081406 54 219 13.0 29.0 0.00 0.02 0.02 71 1000.0
20260830080906 54 203 13.0 31.0 0.00 0.02 0.02 71 999.8
20260830080406 54 195 14.0 26.0 0.00 0.02 0.02 70 1000.0
20260830075907 54 216 13.0 31.0 0.00 0.02 0.02 71 999.9
20260830075406 54 206 13.0 23.0 0.00 0.02 0.02 70 1000.1
20260830074906 54 235 15.0 31.0 0.00 0.02 0.02 69 1000.0
20260830073906 54 214 11.0 26.0 0.00 0.02 0.02 71 999.8
20260830073406 54 237 12.0 26.0 0.00 0.02 0.02 71 999.9
20260830071906 54 212 14.0 33.0 0.00 0.02 0.02 72 999.7
20260830071406 54 212 13.0 26.0 0.00 0.02 0.02 73 999.6
20260830070407 54 209 12.0 29.0 0.00 0.02 0.02 74 999.6
20260830065906 54 202 14.0 29.0 0.00 0.02 0.02 75 999.5
20260830065406 54 227 13.0 24.0 0.00 0.02 0.02 76 999.5
20260830064906 54 208 16.0 32.0 0.00 0.02 0.02 77 999.5
20260830064406 54 244 13.0 33.0 0.00 0.02 0.02 77 999.2
20260830063407 55 211 12.0 29.0 0.00 0.02 0.02 77 999.3
20260830062907 55 217 14.0 26.0 0.00 0.02 0.02 78 999.2
20260830062406 55 249 13.0 28.0 0.00 0.02 0.02 78 999.1
20260830061906 55 225 13.0 25.0 0.00 0.02 0.02 77 999.2
20260830061406 55 211 13.0 31.0 0.00 0.02 0.02 76 999.0
20260830055906 56 209 17.0 30.0 0.00 0.02 0.02 74 998.8
20260830055407 56 221 13.0 31.0 0.00 0.02 0.02 74 998.9
20260830054907 56 251 14.0 28.0 0.00 0.02 0.02 73 998.9
20260830054406 56 219 14.0 37.0 0.00 0.02 0.02 73 998.8
20260830053906 56 199 14.0 31.0 0.00 0.02 0.02 72 998.9
20260830053406 56 204 13.0 26.0 0.00 0.02 0.02 73 998.7
20260830052906 57 195 13.0 31.0 0.00 0.02 0.02 73 998.8
20260830052407 57 206 11.0 33.0 0.00 0.02 0.02 73 998.7
20260830051907 57 216 11.0 31.0 0.00 0.02 0.02 73 998.7
20260830051406 57 218 13.0 30.0 0.00 0.02 0.02 73 998.8
20260830050907 57 256 13.0 25.0 0.00 0.02 0.02 73 999.0
20260830050407 57 197 15.0 31.0 0.00 0.02 0.02 72 998.8
20260830045906 57 206 10.0 28.0 0.00 0.02 0.02 73 998.8
20260830045406 57 308 13.0 26.0 0.00 0.02 0.02 73 998.8
20260830044906 58 212 12.0 28.0 0.00 0.02 0.02 72 998.6
20260830044406 58 201 16.0 40.0 0.01 0.02 0.02 72 998.5
20260830043907 58 229 12.0 25.0 0.01 0.02 0.02 72 998.7
20260830043406 59 294 13.0 35.0 0.01 0.02 0.02 72 998.7
20260830042906 59 246 13.0 32.0 0.01 0.02 0.02 72 998.9
20260830042406 59 200 17.0 41.0 0.01 0.02 0.02 71 999.0
20260830041906 59 214 13.0 31.0 0.01 0.02 0.02 70 998.8
20260830040906 60 298 9.0 23.0 0.01 0.02 0.02 70 999.2
20260830040406 60 213 16.0 33.0 0.01 0.02 0.02 69 999.2
20260830035906 60 227 8.0 30.0 0.01 0.02 0.02 70 999.5
20260830035406 60 198 11.0 35.0 0.01 0.02 0.02 69 999.4
20260830034906 60 199 18.0 37.0 0.01 0.02 0.02 67 999.4
20260830034406 61 205 15.0 26.0 0.00 0.01 0.01 66 999.6
20260830033907 61 188 9.0 24.0 0.00 0.01 0.01 68 999.8
20260830033407 61 290 8.0 24.0 0.00 0.01 0.01 68 999.7
20260830032906 61 208 11.0 26.0 0.00 0.01 0.01 67 999.7
20260830032407 61 204 9.0 20.0 0.00 0.01 0.01 68 999.8
20260830031406 61 244 10.0 26.0 0.00 0.01 0.01 67 999.8
20260830030906 61 316 11.0 36.0 0.00 0.01 0.01 67 999.9
20260830030410 61 170 10.0 26.0 0.00 0.01 0.01 68 999.8
20260830025407 61 193 12.0 31.0 0.00 0.01 0.01 69 999.7
20260830024906 61 225 10.0 24.0 0.00 0.01 0.01 70 999.9
20260830024406 61 282 8.0 20.0 0.00 0.01 0.01 70 999.9
20260830023906 61 337 9.0 22.0 0.00 0.01 0.01 70 999.9
20260830023406 61 309 11.0 25.0 0.00 0.01 0.01 70 1000.1
20260830022906 61 291 9.0 24.0 0.00 0.01 0.01 71 1000.0
20260830022407 61 291 10.0 22.0 0.00 0.01 0.01 70 1000.1
20260830021907 62 319 10.0 21.0 0.00 0.01 0.01 70 1000.1
20260830021408 62 279 9.0 24.0 0.00 0.01 0.01 70 1000.1
20260830020907 62 245 7.0 22.0 0.00 0.01 0.01 72 1000.3
20260830020408 62 312 10.0 17.0 0.00 0.01 0.01 72 1000.3
20260830015907 61 244 6.0 20.0 0.00 0.01 0.01 73 1000.3
20260830015406 61 245 7.0 20.0 0.00 0.01 0.01 72 1000.4
20260830014406 61 338 10.0 24.0 0.00 0.01 0.01 72 1000.5
20260830013906 61 205 10.0 26.0 0.00 0.01 0.01 72 1000.6
20260830013406 61 317 9.0 21.0 0.00 0.01 0.01 73 1000.6
20260830012907 61 299 12.0 23.0 0.00 0.01 0.01 74 1000.6
20260830012406 60 323 9.0 25.0 0.00 0.01 0.01 73 1000.7
20260830011906 60 220 10.0 26.0 0.00 0.01 0.01 75 1000.5
20260830011407 60 314 8.0 24.0 0.00 0.01 0.01 75 1000.5
20260830010907 60 274 11.0 28.0 0.00 0.01 0.01 75 1000.7
20260830010407 60 306 13.0 24.0 0.00 0.01 0.01 74 1000.8
20260830005907 60 230 11.0 24.0 0.00 0.01 0.01 76 1000.9
20260830005406 60 327 11.0 23.0 0.00 0.01 0.01 76 1001.1
20260830004906 60 249 9.0 20.0 0.00 0.01 0.01 77 1001.2
20260830004406 59 297 8.0 21.0 0.00 0.01 0.01 77 1001.2
20260830003906 59 261 10.0 23.0 0.00 0.01 0.01 76 1001.3
20260830003406 59 328 12.0 26.0 0.00 0.01 0.01 76 1001.5
20260830002911 61 261 9.0 21.0 0.00 0.01 0.01 74 1001.6
20260830002406 60 235 10.0 22.0 0.00 0.01 0.01 74 1001.6